Regional Weather Roundup
Issued by NWS Little Rock, AR

Current Version | Previous Version | Text Only | Print | Product List | Glossary On
Versions: 1 2 3 4 5 6 7 8 9 10 11 12 13 14 15 16 17 18 19 20 21 22 23 24 25 26 27 28 29 30 31
000
ASUS44 KLZK 260405
RWRLZK

WEATHER ROUNDUP FOR ARKANSAS
NATIONAL WEATHER SERVICE LITTLE ROCK AR
1100 PM CDT TUE APR 25 2017

NOTE: "FAIR" INDICATES FEW OR NO CLOUDS BELOW 12,000 FEET WITH NO
SIGNIFICANT WEATHER AND/OR OBSTRUCTIONS TO VISIBILITY.

ARZ001-003-010-029-260500-
NORTHWEST ARKANSAS

CITY           SKY/WX    TMP DP  RH WIND       PRES   REMARKS
FAYETTEVILLE   CLOUDY    69  63  81 S9        29.48R
FORT SMITH     PTCLDY    72  62  71 E6        29.47R
HARRISON       CLOUDY    70  61  73 S7        29.53R
BENTONVILLE    PTCLDY    70  61  73 S10       29.48F
ROGERS         PTCLDY    68  62  81 SE8         N/A
SILOAM SPGS    CLOUDY    68  59  73 SE7       29.47F
HIGHFILL       CLOUDY    68  63  84 S9        29.47S
$$

ARZ004-005-016-260500-
NORTH CENTRAL ARKANSAS

CITY           SKY/WX    TMP DP  RH WIND       PRES   REMARKS
BATESVILLE     CLOUDY   N/A N/A N/A SE7       29.55F
FLIPPIN        MOCLDY   N/A N/A N/A CALM      29.50R
MTN HOME       MOCLDY    68  58  70 SE3       29.53R
$$

ARZ040-041-260500-
WEST CENTRAL ARKANSAS

CITY           SKY/WX    TMP DP  RH WIND       PRES   REMARKS
MENA           CLOUDY    73  70  88 CALM      29.54S
MOUNT IDA      CLOUDY    75  62  64 VRB3      29.52
$$

ARZ009-017-025-026-028-260500-
NORTHEAST ARKANSAS

CITY           SKY/WX    TMP DP  RH WIND       PRES   REMARKS
JONESBORO      CLEAR     67  54  63 S8        29.58S
NEWPORT        PTCLDY    69  56  62 S14       29.57S
WALNUT RIDGE   CLEAR     68  52  56 S15       29.56S
BLYTHEVILLE    PTCLDY    67  56  67 S8        29.61S
$$

ARZ022-023-033-042-044-260500-
CENTRAL ARKANSAS

CITY           SKY/WX    TMP DP  RH WIND       PRES   REMARKS
LITTLE ROCK    CLOUDY    72  62  71 S14       29.56F
N LITTLE ROCK    N/A     72  62  70 S10G20    29.55F
JACKSONVILLE   CLOUDY    74  62  65 S10G18    29.55F
CONWAY           N/A     75  63  64 S14       29.52F
SEARCY         CLOUDY    72  61  68 S9        29.57F
HOT SPRINGS    CLOUDY    75  64  68 S10G18    29.55S
RUSSELLVILLE   CLEAR     74  62  66 S7        29.51R
$$

ARZ036-260500-
EAST ARKANSAS

CITY           SKY/WX    TMP DP  RH WIND       PRES   REMARKS
WEST MEMPHIS   CLEAR     67  56  67 S12       29.60S
$$

ARZ050-053-066-070-073-260500-
SOUTHWEST ARKANSAS

CITY           SKY/WX    TMP DP  RH WIND       PRES   REMARKS
ARKADELPHIA      N/A     74  64  71 S12       29.56S
CAMDEN         CLOUDY    73  61  64 S8        29.57F
TEXARKANA      CLOUDY    74  66  76 S16G25    29.55S
EL DORADO        N/A     74  64  71 S10       29.59S
DE QUEEN       PTCLDY    73  67  81 VRB7      29.50R
$$

ARZ056-057-069-260500-
SOUTHEAST ARKANSAS

CITY           SKY/WX    TMP DP  RH WIND       PRES   REMARKS
PINE BLUFF     MOCLDY    70  61  73 S10       29.59F
STUTTGART      CLEAR     72  54  53 S13       29.60S
MONTICELLO     MOCLDY    72  61  68 S7        29.62S

$$






USA.gov is the U.S. government's official web portal to all federal, state and local government web resources and services.